FW5399 Weather Reports


Display with metric or nautical units.
time (UTC)temp
F
wind
direction
speed
MPH
gust
MPH
rain 1hr
in
rain 24hr
in
rain mn
in
humidity
%
barometer
mb
20260510062806 60 284 1.0 6.0 0.00 0.01 0.01 83 1002.0
20260510062306 60 338 1.0 6.0 0.00 0.01 0.01 83 1002.0
20260510061804 59 313 0.0 5.0 0.00 0.01 0.01 83 1002.0
20260510061310 60 317 0.0 2.0 0.00 0.01 0.01 82 1002.0
20260510060807 60 336 0.0 5.0 0.00 0.01 0.01 82 1001.9
20260510060302 60 340 1.0 6.0 0.00 0.01 0.01 82 1001.9
20260510055801 60 296 1.0 6.0 0.00 0.01 0.01 82 1001.9
20260510055301 59 271 0.0 2.0 0.00 0.01 0.01 83 1001.7
20260510054800 59 291 0.0 1.0 0.00 0.01 0.01 84 1001.7
20260510054301 59 305 0.0 2.0 0.00 0.01 0.01 84 1001.6
20260510053801 59 279 0.0 2.0 0.00 0.01 0.01 84 1001.5
20260510053301 59 278 0.0 1.0 0.00 0.01 0.01 84 1001.4
20260510053203 59 309 0.0 0.0 0.00 0.01 0.01 84 1001.4
20260510052257 60 310 0.0 0.0 0.00 0.01 0.01 83 1001.4
20260510051756 60 310 0.0 1.0 0.00 0.01 0.01 82 1001.4
20260510051644 61 310 0.0 5.0 0.00 0.01 0.01 81 1001.4
20260510050755 61 305 0.0 5.0 0.00 0.01 0.01 81 1001.3
20260510050255 61 325 0.0 1.0 0.00 0.01 0.01 81 1001.3
20260510045756 61 321 0.0 2.0 0.00 0.01 0.01 80 1001.3
20260510045255 62 277 0.0 5.0 0.00 0.01 0.01 78 1001.2
20260510044755 62 321 0.0 5.0 0.00 0.01 0.01 78 1001.2
20260510044256 62 330 0.0 3.0 0.00 0.01 0.01 77 1001.3
20260510043755 62 298 0.0 4.0 0.00 0.01 0.01 77 1001.2
20260510043653 62 257 0.0 5.0 0.00 0.01 0.01 77 1001.1
20260510042755 62 330 0.0 5.0 0.00 0.01 0.01 76 1001.2
20260510042724 63 341 0.0 6.0 0.00 0.01 0.01 76 1001.0
20260510041759 63 356 0.0 7.0 0.00 0.01 0.01 76 1000.9
20260510041252 63 350 1.0 7.0 0.00 0.01 0.01 75 1001.1
20260510040757 63 269 1.0 4.0 0.00 0.01 0.01 75 1001.0
20260510040649 63 101 0.0 5.0 0.00 0.01 0.01 76 1001.1
20260510035754 63 316 0.0 6.0 0.00 0.01 0.01 76 1001.1
20260510035253 63 282 0.0 6.0 0.00 0.01 0.01 76 1001.1
20260510034753 63 282 1.0 5.0 0.00 0.01 0.01 78 1001.0
20260510034252 63 269 1.0 5.0 0.00 0.01 0.01 76 1000.9
20260510034209 63 334 1.0 6.0 0.00 0.01 0.01 76 1000.9
20260510033245 63 305 1.0 9.0 0.00 0.01 0.01 75 1000.9
20260510032740 64 289 1.0 9.0 0.00 0.01 0.01 75 1000.9
20260510032242 64 280 1.0 10.0 0.00 0.01 0.01 75 1000.7
20260510031743 64 293 1.0 10.0 0.00 0.01 0.01 75 1000.7
20260510031641 65 300 1.0 9.0 0.00 0.01 0.01 74 1000.6
20260510030919 65 326 2.0 15.0 0.00 0.01 0.01 72 1000.7
20260510025746 68 35 1.0 7.0 0.00 0.01 0.01 69 1000.9
20260510025242 69 126 0.0 3.0 0.00 0.01 0.01 68 1000.8
20260510024742 69 296 1.0 7.0 0.00 0.01 0.01 69 1000.7
20260510024243 69 331 1.0 7.0 0.00 0.01 0.01 70 1000.7
20260510023742 69 330 1.0 6.0 0.00 0.01 0.01 70 1000.7
20260510023240 69 239 0.0 6.0 0.00 0.01 0.01 71 1000.7
20260510022738 69 310 0.0 3.0 0.00 0.01 0.01 70 1000.5
20260510022243 68 317 0.0 4.0 0.00 0.01 0.01 70 1000.5
20260510021740 68 248 1.0 4.0 0.00 0.01 0.01 71 1000.6
20260510021236 67 331 2.0 9.0 0.00 0.01 0.01 71 1000.6
20260510020734 67 346 2.0 9.0 0.00 0.01 0.01 71 1000.6
20260510020235 67 324 2.0 9.0 0.00 0.01 0.01 72 1000.5
20260510015729 67 21 2.0 8.0 0.00 0.01 0.01 70 1000.6
20260510015223 67 86 1.0 8.0 0.00 0.01 0.01 70 1000.5
20260510014718 68 281 1.0 7.0 0.00 0.01 0.01 69 1000.5
20260510014212 67 214 2.0 8.0 0.00 0.01 0.01 71 1000.6
20260510013705 67 300 1.0 11.0 0.00 0.01 0.01 69 1000.7
20260510013159 67 27 1.0 11.0 0.00 0.01 0.01 69 1000.5
20260510012653 68 298 1.0 8.0 0.00 0.01 0.01 69 1000.6
20260510012147 67 294 1.0 10.0 0.00 0.01 0.01 70 1000.7
20260510011643 67 7 1.0 10.0 0.00 0.01 0.01 68 1000.7
20260510011135 68 298 1.0 8.0 0.00 0.01 0.01 67 1000.7
20260510010629 67 300 1.0 6.0 0.00 0.01 0.01 69 1000.8
20260510010123 67 286 2.0 12.0 0.00 0.01 0.01 68 1000.9
20260510005617 67 233 2.0 12.0 0.00 0.01 0.01 69 1000.8
20260510005112 67 338 2.0 9.0 0.00 0.01 0.01 68 1000.7
20260510004605 67 351 2.0 12.0 0.00 0.01 0.01 68 1000.8
20260510004059 68 104 1.0 12.0 0.00 0.01 0.01 69 1000.8
20260510003553 68 303 1.0 9.0 0.00 0.01 0.01 69 1001.0
20260510003047 67 111 1.0 9.0 0.00 0.01 0.01 70 1000.8
20260510002542 68 303 1.0 6.0 0.00 0.01 0.01 70 1000.8
20260510002035 67 332 1.0 6.0 0.00 0.01 0.01 70 1000.9
20260510001529 67 348 1.0 8.0 0.00 0.01 0.01 71 1001.1
20260510001023 67 327 1.0 8.0 0.00 0.01 0.01 70 1001.2
20260510000521 67 196 1.0 7.0 0.00 0.01 0.01 71 1001.3
20260510000012 67 275 1.0 8.0 0.00 0.01 0.01 72 1001.3
20260509235514 66 333 1.0 8.0 0.00 0.01 0.01 71 1001.3
20260509235006 66 260 1.0 6.0 0.00 0.01 0.01 72 1001.3
20260509234503 66 255 1.0 6.0 0.00 0.01 0.01 72 1001.3
20260509234405 66 292 1.0 7.0 0.00 0.01 0.01 73 1001.4
20260509233504 65 355 1.0 9.0 0.00 0.01 0.01 72 1001.5
20260509233005 65 349 1.0 9.0 0.00 0.01 0.01 72 1001.4
20260509232902 65 6 1.0 6.0 0.00 0.01 0.01 74 1001.6
20260509232356 64 330 1.0 8.0 0.00 0.01 0.01 74 1001.6
20260509231501 64 298 1.0 8.0 0.00 0.01 0.01 74 1001.6
20260509231000 64 299 1.0 6.0 0.00 0.01 0.01 74 1001.6
20260509230511 64 305 1.0 6.0 0.00 0.01 0.01 76 1001.8
20260509230007 63 352 1.0 4.0 0.00 0.01 0.01 75 1001.9
20260509225506 63 279 1.0 8.0 0.00 0.01 0.01 75 1001.9
20260509225002 63 306 1.0 8.0 0.00 0.01 0.01 74 1002.0
20260509224459 63 35 0.0 4.0 0.00 0.01 0.01 79 1001.9
20260509224000 62 277 0.0 3.0 0.00 0.01 0.01 81 1001.9
20260509223500 61 250 1.0 6.0 0.00 0.01 0.01 80 1001.9
20260509223401 61 273 1.0 6.0 0.00 0.01 0.01 81 1002.0
20260509222457 61 307 0.0 3.0 0.00 0.01 0.01 80 1002.1
20260509221957 61 253 0.0 3.0 0.00 0.01 0.01 79 1001.9
20260509221458 61 305 1.0 5.0 0.00 0.01 0.01 78 1002.1
20260509220959 61 96 1.0 8.0 0.00 0.01 0.01 78 1002.0
20260509220459 62 4 2.0 8.0 0.00 0.01 0.01 78 1002.0
20260509215957 62 301 1.0 5.0 0.00 0.01 0.01 76 1002.0
20260509215458 63 304 0.0 3.0 0.00 0.01 0.01 76 1002.1
20260509214959 63 239 0.0 2.0 0.00 0.01 0.01 80 1001.9
20260509214459 62 281 0.0 2.0 0.00 0.01 0.01 82 1002.0
20260509214133 61 291 0.0 3.0 0.00 0.01 0.01 84 1002.1
20260509212957 60 308 0.0 4.0 0.00 0.01 0.01 85 1002.1
20260509212456 60 264 1.0 3.0 0.00 0.01 0.01 87 1002.1
20260509211957 59 265 1.0 4.0 0.00 0.01 0.01 89 1002.1
20260509211457 58 237 0.0 4.0 0.00 0.01 0.01 92 1002.2
20260509210956 57 303 0.0 2.0 0.00 0.01 0.01 97 1002.2
20260509210453 56 267 0.0 2.0 0.00 0.01 0.01 100 1002.1
20260509205953 56 38 0.0 2.0 0.00 0.01 0.01 100 1002.2
20260509205836 55 313 0.0 2.0 0.00 0.01 0.01 100 1002.2
20260509204947 56 359 0.0 1.0 0.00 0.01 0.01 100 1002.2
20260509204440 55 6 0.0 1.0 0.00 0.01 0.01 100 1002.2
20260509203933 54 290 0.0 0.0 0.00 0.01 0.01 100 1002.4
20260509203816 53 241 0.0 0.0 0.00 0.01 0.01 100 1002.2
20260509202921 52 241 0.0 0.0 0.01 0.01 0.01 100 1002.2
20260509202418 52 240 0.0 0.0 0.01 0.01 0.01 100 1002.2
20260509201910 51 241 0.0 0.0 0.01 0.01 0.01 100 1002.2
20260509201404 51 241 0.0 0.0 0.01 0.01 0.01 100 1002.3
20260509200857 50 240 0.0 0.0 0.01 0.01 0.01 100 1002.3
20260509200351 50 241 0.0 0.0 0.01 0.01 0.01 100 1002.2
20260509195847 50 240 0.0 0.0 0.01 0.01 0.01 100 1002.2
20260509195340 49 240 0.0 0.0 0.01 0.01 0.01 100 1002.0
20260509194833 49 240 0.0 0.0 0.01 0.01 0.01 100 1002.1
20260509194327 48 240 0.0 0.0 0.01 0.02 0.01 100 1002.2
20260509193821 48 240 0.0 0.0 0.01 0.02 0.01 100 1002.0
20260509193317 48 239 0.0 0.0 0.01 0.02 0.01 100 1002.1
20260509192809 47 239 0.0 0.0 0.00 0.01 0.00 100 1002.2
20260509192311 46 239 0.0 0.0 0.00 0.01 0.00 100 1002.1
20260509192206 45 266 0.0 0.0 0.00 0.01 0.00 100 1002.0
20260509191705 45 266 0.0 0.0 0.00 0.01 0.00 100 1002.1
20260509190747 45 266 0.0 0.0 0.00 0.01 0.00 100 1002.1
20260509190239 44 266 0.0 0.0 0.00 0.01 0.00 100 1002.1
20260509190150 44 266 0.0 0.0 0.00 0.01 0.00 100 1002.1
20260509185227 44 266 0.0 0.0 0.00 0.01 0.00 100 1002.1
20260509185113 44 266 0.0 0.0 0.00 0.01 0.00 100 1002.2
20260509184217 43 267 0.0 0.0 0.00 0.01 0.00 100 1002.2
20260509183709 43 267 0.0 0.0 0.00 0.01 0.00 100 1002.2
20260509183221 43 267 0.0 0.0 0.00 0.01 0.00 100 1002.2
20260509182653 43 267 0.0 0.0 0.00 0.01 0.00 100 1002.3
20260509182147 43 267 0.0 0.0 0.00 0.01 0.00 100 1002.1
20260509181641 43 267 0.0 0.0 0.00 0.01 0.00 100 1002.1
20260509181137 44 267 0.0 0.0 0.00 0.01 0.00 100 1002.1
20260509180630 44 267 0.0 0.0 0.00 0.01 0.00 100 1002.2
20260509180123 44 267 0.0 0.0 0.00 0.01 0.00 100 1002.1
20260509175617 44 267 0.0 0.0 0.00 0.01 0.00 100 1002.2
20260509175114 44 267 0.0 0.0 0.00 0.01 0.00 100 1002.1
20260509174608 44 267 0.0 0.0 0.00 0.01 0.00 100 1002.2
20260509174110 44 267 0.0 0.0 0.00 0.01 0.00 100 1002.0
20260509173606 44 265 0.0 0.0 0.00 0.01 0.00 100 1002.0
20260509173108 44 265 0.0 0.0 0.00 0.01 0.00 100 1002.1
20260509172608 44 265 0.0 0.0 0.00 0.01 0.00 100 1002.0
20260509172106 44 265 0.0 0.0 0.00 0.02 0.00 100 1002.0
20260509171609 44 265 0.0 0.0 0.00 0.02 0.00 100 1001.9
20260509171107 44 265 0.0 0.0 0.00 0.02 0.00 100 1001.9
20260509170605 44 265 0.0 0.0 0.00 0.02 0.00 100 1001.8
20260509170114 44 265 0.0 0.0 0.00 0.02 0.00 100 1001.8
20260509165607 44 265 0.0 0.0 0.00 0.02 0.00 100 1001.8
20260509165104 44 265 0.0 0.0 0.00 0.02 0.00 100 1001.8
20260509164605 44 265 0.0 0.0 0.00 0.02 0.00 100 1001.8
20260509164449 44 265 0.0 0.0 0.00 0.02 0.00 99 1001.8
20260509163602 44 265 0.0 0.0 0.00 0.02 0.00 99 1001.9
20260509163102 44 265 0.0 0.0 0.00 0.02 0.00 100 1001.8
20260509162554 44 265 0.0 0.0 0.00 0.02 0.00 100 1001.9
20260509162100 45 265 0.0 0.0 0.00 0.02 0.00 100 1001.8
20260509161943 45 265 0.0 0.0 0.00 0.02 0.00 99 1001.8
20260509161051 45 265 0.0 0.0 0.00 0.02 0.00 99 1001.8
20260509160550 45 265 0.0 0.0 0.00 0.03 0.00 99 1001.7
20260509160053 45 265 0.0 0.0 0.00 0.03 0.00 99 1001.8
20260509155552 46 265 0.0 0.0 0.00 0.03 0.00 99 1001.9
20260509155054 46 265 0.0 0.0 0.00 0.04 0.00 99 1001.9
20260509154551 47 265 0.0 0.0 0.00 0.05 0.00 100 1001.8
20260509154052 47 265 0.0 0.0 0.00 0.05 0.00 100 1001.8
20260509153551 47 265 0.0 0.0 0.00 0.05 0.00 99 1001.8
20260509153441 47 265 0.0 0.0 0.00 0.05 0.00 99 1001.8
20260509152546 47 265 0.0 0.0 0.00 0.06 0.00 99 1001.8
20260509152045 48 265 0.0 0.0 0.00 0.07 0.00 100 1001.8
20260509151546 48 265 0.0 0.0 0.00 0.13 0.00 100 1001.9
20260509151045 48 265 0.0 0.0 0.00 0.16 0.00 100 1001.9
20260509150546 48 265 0.0 0.0 0.00 0.19 0.00 100 1001.9
20260509150045 49 265 0.0 0.0 0.00 0.20 0.00 100 1001.9
20260509145543 49 265 0.0 0.0 0.00 0.22 0.00 100 1002.0
20260509145436 49 265 0.0 0.0 0.00 0.23 0.00 100 1002.0
20260509145023 49 265 0.0 0.0 0.00 0.25 0.00 99 1002.0
20260509144102 49 265 0.0 0.0 0.00 0.27 0.00 99 1002.0
20260509143537 50 265 0.0 0.0 0.00 0.28 0.00 100 1002.0
20260509143035 50 265 0.0 0.0 0.00 0.28 0.00 100 1002.0
20260509142524 51 265 0.0 0.0 0.00 0.29 0.00 100 1002.2
20260509142411 51 265 0.0 0.0 0.00 0.30 0.00 100 1002.3
20260509141512 51 265 0.0 0.0 0.00 0.30 0.00 100 1002.3
20260509141426 51 265 0.0 0.0 0.00 0.30 0.00 100 1002.5
20260509140501 51 265 0.0 0.0 0.00 0.31 0.00 100 1002.4
20260509135955 51 265 0.0 0.0 0.00 0.31 0.00 100 1002.5
20260509135449 51 265 0.0 0.0 0.00 0.31 0.00 100 1002.4
20260509135335 51 265 0.0 0.0 0.00 0.33 0.00 100 1002.4
20260509134437 51 265 0.0 0.0 0.00 0.34 0.00 100 1002.6
20260509134100 51 265 0.0 0.0 0.00 0.35 0.00 100 1002.5
20260509132917 51 266 0.0 0.0 0.00 0.42 0.00 100 1002.5
20260509132823 51 266 0.0 0.0 0.00 0.45 0.00 100 1002.6
20260509131904 51 266 0.0 0.0 0.00 0.46 0.00 100 1002.6
20260509131412 51 266 0.0 0.0 0.00 0.46 0.00 100 1002.7
20260509130852 51 266 0.0 0.0 0.00 0.48 0.00 100 1002.6
20260509130347 51 266 0.0 0.0 0.00 0.50 0.00 100 1002.6
20260509125841 51 266 0.0 0.0 0.00 0.51 0.00 100 1002.7
20260509125334 51 266 0.0 0.0 0.00 0.51 0.00 99 1002.8
20260509124829 51 266 0.0 0.0 0.00 0.53 0.00 99 1002.8
20260509124323 52 266 0.0 0.0 0.00 0.54 0.00 100 1002.8
20260509123817 52 266 0.0 0.0 0.00 0.55 0.00 100 1002.8
20260509123654 52 266 0.0 0.0 0.00 0.57 0.00 100 1002.8
20260509122812 52 266 0.0 0.0 0.00 0.57 0.00 100 1002.9
20260509122308 52 266 0.0 0.0 0.00 0.57 0.00 100 1002.9
20260509121804 53 266 0.0 0.0 0.00 0.57 0.00 100 1002.8
20260509121304 52 266 0.0 0.0 0.00 0.58 0.00 100 1002.9
20260509120805 52 266 0.0 0.0 0.00 0.59 0.00 100 1002.8
20260509120302 52 266 0.0 0.0 0.00 0.59 0.00 100 1002.6
20260509115803 52 266 0.0 0.0 0.00 0.59 0.59 100 1002.6
20260509115302 52 266 0.0 0.0 0.00 0.59 0.59 100 1002.6
20260509114802 52 266 0.0 0.0 0.00 0.60 0.59 100 1002.4
20260509114303 53 265 0.0 0.0 0.00 0.61 0.59 100 1002.6
20260509113803 52 265 0.0 0.0 0.00 0.62 0.59 100 1002.5
20260509113300 52 266 0.0 0.0 0.00 0.63 0.59 100 1002.6
20260509112802 52 266 0.0 0.0 0.00 0.63 0.59 100 1002.7
20260509112653 52 266 0.0 0.0 0.00 0.63 0.59 100 1002.7
20260509111813 53 265 0.0 0.0 0.00 0.63 0.59 100 1002.8
20260509111704 53 266 0.0 0.0 0.00 0.63 0.59 100 1002.7
20260509110758 52 266 0.0 0.0 0.00 0.63 0.59 100 1002.8
20260509110256 52 266 0.0 0.0 0.00 0.64 0.59 100 1003.0
20260509105752 52 266 0.0 0.0 0.00 0.64 0.59 100 1003.0
20260509105252 52 266 0.0 0.0 0.00 0.64 0.59 100 1003.1
20260509104800 52 266 0.0 0.0 0.00 0.64 0.59 100 1003.2
20260509104249 52 266 0.0 0.0 0.00 0.64 0.59 100 1003.2
20260509104152 52 266 0.0 0.0 0.00 0.64 0.59 99 1003.2
20260509103247 52 265 0.0 0.0 0.00 0.64 0.59 99 1003.3
20260509103145 52 266 0.0 0.0 0.00 0.64 0.59 99 1003.5
20260509102249 52 266 0.0 0.0 0.00 0.64 0.59 99 1003.5
20260509101759 53 266 0.0 0.0 0.00 0.64 0.59 100 1003.6
20260509101244 53 266 0.0 0.0 0.00 0.64 0.59 100 1003.6
20260509100738 53 266 0.0 0.0 0.00 0.64 0.59 100 1003.5
20260509100614 52 266 0.0 0.0 0.00 0.65 0.59 100 1003.6
20260509095731 52 265 0.0 0.0 0.00 0.65 0.59 100 1003.7
20260509095235 52 266 0.0 0.0 0.00 0.65 0.59 100 1003.6
20260509094737 52 266 0.0 0.0 0.00 0.65 0.59 100 1003.7
20260509094232 51 266 0.0 0.0 0.00 0.65 0.59 100 1003.7
20260509093723 51 265 0.0 0.0 0.00 0.68 0.59 99 1003.8
20260509093612 51 265 0.0 0.0 0.00 0.70 0.59 99 1003.8
20260509092712 51 266 0.0 0.0 0.00 0.72 0.59 99 1003.6
20260509092206 51 266 0.0 0.0 0.00 0.73 0.59 99 1003.6
20260509091831 51 266 0.0 0.0 0.00 0.75 0.59 99 1003.6
20260509091814 51 266 0.0 0.0 0.00 0.76 0.59 99 1003.7
20260509091727 51 266 0.0 0.0 0.00 0.75 0.59 99 1003.7
20260509085636 52 266 0.0 0.0 0.00 0.77 0.59 99 1003.6
20260509085343 52 266 0.0 0.0 0.00 0.77 0.59 99 1003.5
20260509085238 52 266 0.0 0.0 0.00 0.77 0.59 99 1003.5
20260509083619 52 266 0.0 0.0 0.00 0.78 0.59 99 1003.6
20260509083114 52 266 0.0 0.0 0.00 0.79 0.59 99 1003.7
20260509083012 51 266 0.0 0.0 0.00 0.79 0.59 99 1003.5
20260509082118 51 266 0.0 0.0 0.00 0.80 0.59 99 1003.5
20260509081614 51 266 0.0 0.0 0.00 0.81 0.59 99 1003.4
20260509081113 51 265 0.0 0.0 0.00 0.81 0.59 98 1003.3
20260509080615 51 266 0.0 0.0 0.00 0.81 0.59 98 1003.3
20260509080257 51 266 0.0 0.0 0.00 0.82 0.59 98 1003.3
20260509075111 52 265 0.0 0.0 0.00 0.82 0.59 98 1003.5
20260509074610 52 265 0.0 0.0 0.00 0.82 0.59 98 1003.4
20260509074106 52 265 0.0 0.0 0.00 0.83 0.59 98 1003.4
20260509073609 52 266 0.0 0.0 0.00 0.83 0.59 98 1003.5
20260509073106 52 266 0.0 0.0 0.00 0.83 0.59 98 1003.4
20260509072607 52 266 0.0 0.0 0.00 0.84 0.59 97 1003.3
20260509072502 52 266 0.0 0.0 0.00 0.85 0.59 97 1003.3
20260509071612 53 266 0.0 0.0 0.00 0.85 0.59 97 1003.4
20260509071113 53 266 0.0 0.0 0.00 0.86 0.59 97 1003.2
20260509070612 53 266 0.0 0.0 0.00 0.86 0.59 97 1003.0
20260509070120 53 266 0.0 0.0 0.00 0.86 0.59 97 1002.9
20260509065605 54 266 0.0 0.0 0.00 0.87 0.59 97 1003.0
20260509065104 54 266 0.0 0.0 0.00 0.87 0.59 97 1003.0
20260509064959 54 302 0.0 0.0 0.00 0.87 0.59 97 1003.0
20260509064511 54 302 0.0 0.0 0.00 0.87 0.59 97 1003.1